DW7061 Weather Reports


time (UTC)temp
F
wind
direction
speed
knots
gust
knots
rain 1hr
in
rain 24hr
in
rain mn
in
humidity
%
barometer
mb
20260504175037 67 248 3.5 7.0 0.00 0.00 0.00 37 1008.0
20260504174038 66 248 3.5 8.7 0.00 0.00 0.00 37 1007.9
20260504173018 66 248 2.6 7.8 0.00 0.00 0.00 35 1007.9
20260504172017 65 248 3.5 8.7 0.00 0.00 0.00 35 1008.0
20260504171018 65 248 4.3 8.7 0.00 0.00 0.00 35 1008.2
20260504151018 60 248 4.3 9.6 0.00 0.00 0.00 42 1009.4
20260504141037 57 248 0.9 6.1 0.00 0.00 0.00 52 1009.7
20260504081017 43 0.0 0.0 0.00 0.00 0.00 61 1009.7
20260504050017 43 0.0 0.9 0.00 0.00 0.00 59 1009.8
20260504045038 43 0.0 0.9 0.00 0.00 0.00 58 1009.9
20260504044017 43 0.0 0.0 0.00 0.00 0.00 58 1009.8
20260504043017 43 0.0 0.0 0.00 0.00 0.00 57 1009.8
20260504042017 43 0.0 0.0 0.00 0.00 0.00 56 1009.9
20260504041018 43 0.0 0.9 0.00 0.00 0.00 56 1009.8
20260504040020 43 0.0 0.9 0.00 0.00 0.00 55 1009.9
20260504035016 43 0.0 0.0 0.00 0.00 0.00 54 1009.7
20260504034016 43 0.0 0.0 0.00 0.00 0.00 53 1009.5
20260504033016 43 0.0 0.0 0.00 0.00 0.00 53 1009.4
20260504032037 43 0.0 0.9 0.00 0.00 0.00 52 1009.4
20260504031016 43 0.0 0.0 0.00 0.00 0.00 52 1009.3
20260504030036 43 0.0 0.9 0.00 0.00 0.00 51 1009.3
20260504025036 43 0.0 0.9 0.00 0.00 0.00 51 1009.2
20260504024017 43 0.0 0.9 0.00 0.00 0.00 50 1009.3
20260504023036 44 0.0 0.9 0.00 0.00 0.00 49 1009.3
20260504022016 44 0.0 0.9 0.00 0.00 0.00 48 1009.2
20260504021037 44 0.0 2.6 0.00 0.00 0.00 47 1009.1
20260504020016 44 0.0 1.7 0.00 0.00 0.00 47 1009.0
20260504015016 44 0.0 0.9 0.00 0.00 0.00 46 1008.8
20260504014016 44 0.0 1.7 0.00 0.00 0.00 46 1008.7
20260504013056 44 0.0 0.0 0.00 0.00 0.00 46 1008.6
20260504012016 44 248 0.9 4.3 0.00 0.00 0.00 47 1008.5
20260504011036 44 0.0 1.7 0.00 0.00 0.00 49 1008.4
20260504010016 43 0.0 0.9 0.00 0.00 0.00 52 1008.2
20260504005017 43 0.0 0.0 0.00 0.00 0.00 53 1008.1
20260504004016 43 0.0 0.0 0.00 0.00 0.00 53 1007.9
20260504003016 43 0.0 0.0 0.00 0.00 0.00 52 1007.7
20260504002016 44 0.0 0.0 0.00 0.00 0.00 51 1007.7
20260504001037 45 0.0 0.0 0.00 0.00 0.00 50 1007.7
20260504000016 45 0.0 0.0 0.00 0.00 0.00 49 1007.5
20260503235016 46 0.0 0.9 0.00 0.00 0.00 47 1007.5
20260503234016 47 0.0 2.6 0.00 0.00 0.00 46 1007.4
20260503233017 47 0.0 2.6 0.00 0.00 0.00 45 1007.3
20260503232016 48 0.0 1.7 0.00 0.00 0.00 45 1007.3
20260503231036 48 0.0 2.6 0.00 0.00 0.00 44 1007.3
20260503230016 48 248 0.9 3.5 0.00 0.00 0.00 44 1007.2
20260503225017 49 270 0.9 4.3 0.00 0.00 0.00 44 1007.1
20260503224016 48 0.0 3.5 0.00 0.00 0.00 45 1007.1
20260503223016 48 0.0 2.6 0.00 0.00 0.00 44 1007.1
20260503222016 49 0.0 1.7 0.00 0.00 0.00 44 1007.1
20260503221057 49 270 0.9 3.5 0.00 0.00 0.00 43 1007.0
20260503220016 48 270 0.9 3.5 0.00 0.00 0.00 44 1007.1
20260503215016 48 248 2.6 6.1 0.00 0.00 0.00 44 1007.0
20260503214016 48 248 1.7 7.0 0.00 0.00 0.00 45 1007.0
20260503213017 48 45 0.9 6.1 0.00 0.00 0.00 45 1007.0
20260503212016 49 270 2.6 9.6 0.00 0.00 0.00 42 1007.0
20260503211016 49 270 0.9 5.2 0.00 0.00 0.00 42 1006.8
20260503210016 49 248 1.7 5.2 0.00 0.00 0.00 42 1006.6
20260503205516 49 270 0.9 7.0 0.00 0.00 0.00 42 1006.7
20260503204516 49 248 2.6 8.7 0.00 0.00 0.00 41 1006.6
20260503203536 48 248 0.9 5.2 0.00 0.00 0.00 43 1006.6
20260503202516 48 248 2.6 7.8 0.00 0.00 0.00 43 1006.5
20260503201516 48 248 1.7 5.2 0.00 0.00 0.00 43 1006.3
20260503200516 48 270 1.7 7.8 0.00 0.00 0.00 43 1006.4
20260503195516 48 225 2.6 10.4 0.00 0.00 0.00 43 1006.4
20260503194518 48 270 1.7 7.0 0.00 0.00 0.00 44 1006.6
20260503193516 48 248 1.7 5.2 0.00 0.00 0.00 44 1006.6
20260503192517 47 248 2.6 7.0 0.00 0.00 0.00 45 1006.6
20260503191515 47 248 1.7 7.8 0.00 0.00 0.00 45 1006.5
20260503190516 48 248 0.9 5.2 0.00 0.00 0.00 45 1006.5
20260503185516 48 248 2.6 8.7 0.00 0.00 0.00 47 1006.5
20260503184536 48 248 2.6 8.7 0.00 0.00 0.00 47 1006.5
20260503183516 48 270 1.7 7.8 0.00 0.00 0.00 47 1006.5
20260503182536 49 248 2.6 7.8 0.00 0.00 0.00 45 1006.3
20260503181537 49 270 0.9 3.5 0.00 0.00 0.00 46 1006.5
20260503180516 48 270 1.7 7.8 0.00 0.00 0.00 49 1006.4